Location: *
(51.1248°S, 108.4023°W)
Time: 05:15:37
(UTC+00:00)

MOS 1-B - Pass Details

Date: 15 June 2021
Orbit: 905 x 913 km, 99.4° (Epoch: 31 July)

Event Time Altitude Azimuth Distance (km) Brightness Sun altitude
Rises 12:15:26 0° 25° (NNE) 3,540 7.8 -27.0°
Reaches altitude 10° 12:17:50 10° 26° (NNE) 2,607 7.1 -26.7°
Maximum altitude 12:23:38 75° 110° (ESE) 961 4.5 -25.7°
Enters shadow 12:28:00 19° 192° (SSW) 2,065 6.0 -25.1°
